CW0213 Weather Reports


time (UTC)temp
C
wind
direction
speed
KPH
gust
KPH
rain 1hr
cm
rain 24hr
cm
rain mn
cm
humidity
%
barometer
mb
20260503194520 23 254 1.6 11.3 0.00 0.00 0.00 55 1010.2
20260503193033 22 253 3.2 12.9 0.00 0.00 0.00 57 1010.2
20260503190056 22 236 4.8 14.5 0.00 0.00 0.00 62 1010.1
20260503184632 22 262 4.8 11.3 0.00 0.00 0.00 61 1010.2
20260503183033 21 257 3.2 11.3 0.00 0.00 0.00 64 1010.5
20260503181521 22 242 4.8 12.9 0.00 0.00 0.00 61 1010.6
20260503180019 22 41 0.0 6.4 0.00 0.00 0.00 55 1010.7
20260503174512 22 22 3.2 6.4 0.00 0.00 0.00 55 1011.0
20260503173009 22 36 1.6 6.4 0.00 0.00 0.00 55 1011.1
20260503171505 21 26 0.0 4.8 0.00 0.00 0.00 57 1011.2
20260503170118 20 43 1.6 4.8 0.00 0.00 0.00 57 1011.2
20260503100106 12 26 0.0 0.0 0.00 0.00 0.00 83 1011.0
20260503081550 13 355 0.0 1.6 0.00 0.00 0.00 79 1011.0
20260503071544 14 355 0.0 3.2 0.00 0.00 0.00 77 1010.9
20260503054556 16 257 1.6 6.4 0.00 0.00 0.00 70 1010.5
20260503053036 16 258 1.6 6.4 0.00 0.00 0.00 68 1010.5
20260503051535 16 256 0.0 1.6 0.00 0.00 0.00 67 1010.5
20260503050036 17 253 0.0 3.2 0.00 0.00 0.00 65 1010.6
20260503044541 17 252 0.0 4.8 0.00 0.00 0.00 63 1010.6
20260503043042 17 252 0.0 6.4 0.00 0.00 0.00 64 1010.6
20260503041534 17 246 1.6 6.4 0.00 0.00 0.00 63 1010.4
20260503040036 18 261 0.0 0.0 0.00 0.00 0.00 63 1010.2
20260503034536 18 261 0.0 0.0 0.00 0.00 0.00 62 1010.1
20260503033031 18 261 0.0 0.0 0.00 0.00 0.00 62 1010.1
20260503031532 19 261 1.6 4.8 0.00 0.00 0.00 62 1010.1
20260503030035 20 261 0.0 4.8 0.00 0.00 0.00 60 1010.0
20260503024535 20 261 0.0 4.8 0.00 0.00 0.00 60 1009.9
20260503023028 20 258 3.2 4.8 0.00 0.00 0.00 58 1010.0
20260503021528 21 246 3.2 6.4 0.00 0.00 0.00 57 1010.2
20260503020027 21 258 0.0 6.4 0.00 0.00 0.00 56 1010.2
20260503014527 22 259 1.6 6.4 0.00 0.00 0.00 56 1010.2
20260503013036 22 238 0.0 6.4 0.00 0.00 0.00 54 1010.2
20260503011525 22 248 1.6 8.0 0.00 0.00 0.00 53 1010.2
20260503010024 23 236 0.0 6.4 0.00 0.00 0.00 53 1010.3
20260503004530 23 259 1.6 9.7 0.00 0.00 0.00 54 1010.5
20260503003019 23 254 0.0 12.9 0.00 0.00 0.00 55 1010.6
20260503001519 23 242 1.6 12.9 0.00 0.00 0.00 54 1010.6
20260503000017 23 254 1.6 9.7 0.00 0.00 0.00 56 1010.6
20260502234514 23 251 1.6 11.3 0.00 0.00 0.00 56 1010.8
20260502233026 23 64 3.2 14.5 0.00 0.00 0.00 53 1011.0
20260502231509 23 129 1.6 17.7 0.00 0.00 0.00 54 1011.2
20260502230008 23 73 3.2 14.5 0.00 0.00 0.00 53 1011.2
20260502224505 22 341 1.6 12.9 0.00 0.00 0.00 53 1011.8
20260502223002 22 246 3.2 12.9 0.00 0.00 0.00 52 1012.0
20260502221600 22 198 3.2 12.9 0.00 0.00 0.00 54 1012.2
20260502220058 22 238 1.6 14.5 0.00 0.00 0.00 57 1012.3
20260502214558 22 113 1.6 11.3 0.00 0.00 0.00 58 1012.3
20260502213052 22 42 3.2 12.9 0.00 0.00 0.00 60 1012.4
20260502211553 22 238 4.8 16.1 0.00 0.00 0.00 60 1012.8
20260502210100 22 256 1.6 8.0 0.00 0.00 0.00 61 1012.7
20260502204555 21 277 1.6 12.9 0.00 0.00 0.00 61 1012.8
20260502203052 21 5 4.8 14.5 0.00 0.00 0.00 63 1012.8
20260502201548 21 261 3.2 12.9 0.00 0.00 0.00 64 1013.1
20260502200051 21 254 6.4 16.1 0.00 0.00 0.00 65 1013.2